This is the latest recevied weather packets stored in our database for station/object KN6ETB-1. If no packets are shown the sender has not sent any weather packets the latest 10 day(s).
| Time | Temp. | Humidity | Pressure | Rain* | Wind** | Luminosity | Snow |
|---|---|---|---|---|---|---|---|
| 1777741619 | 13.89° C | 83% | 1010.2 hPa | 0 mm | - | 230 W/m² | - |
| 1777741316 | 13.89° C | 84% | 1010.1 hPa | 0 mm | - | 207 W/m² | - |
| 1777741012 | 13.89° C | 84% | 1010.3 hPa | 0 mm | - | 184 W/m² | - |
| 1777740709 | 13.89° C | 84% | 1010.1 hPa | 0 mm | - | 176 W/m² | - |
| 1777740405 | 13.89° C | 84% | 1009.8 hPa | 0 mm | - | 162 W/m² | - |
| 1777740102 | 13.89° C | 84% | 1009.8 hPa | 0 mm | - | 150 W/m² | - |
| 1777739798 | 13.89° C | 84% | 1009.7 hPa | 0 mm | - | 142 W/m² | - |
| 1777739495 | 13.89° C | 85% | 1009.7 hPa | 0 mm | - | 126 W/m² | - |
| 1777739192 | 13.89° C | 85% | 1009.6 hPa | 0 mm | - | 116 W/m² | - |
| 1777738889 | 13.33° C | 85% | 1009.5 hPa | 0 mm | - | 106 W/m² | - |
| 1777738586 | 13.33° C | 85% | 1009.5 hPa | 0 mm | - | 101 W/m² | - |
| 1777738283 | 13.33° C | 85% | 1009.4 hPa | 0 mm | - | 100 W/m² | - |
| 1777737981 | 13.33° C | 85% | 1009.3 hPa | 0 mm | - | 98 W/m² | - |
| 1777737680 | 13.33° C | 85% | 1009.7 hPa | 0 mm | - | 106 W/m² | - |
| 1777737378 | 13.33° C | 84% | 1009.6 hPa | 0 mm | - | 123 W/m² | - |
| 1777737074 | 13.89° C | 85% | 1009.6 hPa | 0 mm | - | 141 W/m² | - |
| 1777736770 | 13.89° C | 85% | 1009.5 hPa | 0 mm | - | 144 W/m² | - |
| 1777736142 | 13.33° C | 85% | 1009.3 hPa | 0 mm | - | 154 W/m² | - |
| 1777735839 | 13.33° C | 86% | 1009.3 hPa | 0 mm | - | 145 W/m² | - |
| 1777735537 | 13.33° C | 86% | 1009.2 hPa | 0 mm | - | 146 W/m² | - |
| 1777735234 | 13.33° C | 86% | 1009 hPa | 0 mm | - | 141 W/m² | - |
| 1777734931 | 13.33° C | 86% | 1009.2 hPa | 0 mm | - | 131 W/m² | - |
| 1777734628 | 13.33° C | 86% | 1009.2 hPa | 0 mm | - | 114 W/m² | - |
| 1777734326 | 13.33° C | 86% | 1009.1 hPa | 0 mm | - | 95 W/m² | - |
| 1777734021 | 13.33° C | 86% | 1009.1 hPa | 0 mm | - | 81 W/m² | - |
* Rain latest hour (hover to see other rain measurements)
** Current wind speed in m/s (hover to see current wind gust speed)